Vertical_Velocity
3 1 2 2 3 2 1 0 1 3 -3 1 1 2 2 2 -2 -0 -0 0 4 1 1 -2 0 1 -1
1 3 -0 -1 1 -2 0 2 -0 0 -1 2 3 4 1 1 0 -1 -0 1 4 1 1 -1 -1 0 -0
4 2 1 1 1 4 -3 1 4 -0 -0 -2 -1 4 1 1 1 -1 -1 2 1 2 2 1 1 -1 -1
-0 1 1 1 -3 3 3 4 1 2 1 2 -3 1 1 3 -0 -6 -3 -1 -1 2 1 2 -2 -1 -1
-2 -3 2 -0 3 2 3 6 -1 3 2 -2 5 0 4 6 2 -3 -1 -0 -2 -1 1 -3 -2 -0 0
-2 -1 2 -0 2 1 -0 -1 -4 7 -1 1 4 -3 7 4 5 -0 -1 -3 -2 -0 -2 -0 -0 -2 0
-3 -1 -7 9 3 -8 3 2 4 2 -0 0 4 -3 8 6 4 1 -2 -1 0 0 -1 1 2 -3 -0
3 2 -6 -3 -6 1 4 1 4 -6 5 -1 2 -1 4 6 1 1 -1 -3 -1 1 -1 -2 -1 -0 1
-9 -7 2 5 6 1 -0 1 -1 0 5 -0 2 1 3 5 3 -2 -2 -3 0 1 -1 -0 -1 -1 1
-1 -0 2 -1 4 5 2 2 -1 0 2 -3 2 3 -0 2 -1 -1 1 1 2 2 0 -2 -3 -3 -1
-1 6 2 -4 4 7 -0 -0 1 5 -2 0 2 4 0 0 3 3 1 1 -1 -0 -0 -4 -2 -5 0
15 7 -2 -2 13 1 1 -1 0 5 3 4 1 2 2 0 1 -1 0 -3 -1 1 -1 -2 -3 -2 -6
3 -5 8 5 3 -0 2 3 -1 -1 0 2 -0 0 0 -0 1 -3 -2 -1 1 0 -1 -1 -3 -4 4
4 3 0 -3 -0 -1 1 3 2 -1 0 -0 1 -1 0 -2 -2 -1 0 -2 1 -1 -0 -3 -5 -6 -2
-1 -2 -1 -3 -3 -4 1 0 1 -0 -0 1 -1 -0 -0 -2 -1 -2 -1 -2 -3 -2 -1 2 -3 -3 -0
-0 -2 -2 3 1 1 0 -1 3 1 2 -1 -0 -1 -0 -0 -0 -0 -1 -1 -3 -3 0 5 5 -4 -1
-1 -1 -0 -2 -2 -2 -1 -0 2 2 1 -0 -0 0 -4 -3 1 -1 -0 1 1 -4 -2 -4 -2 -1 1
Height
3136 3137 3138 3139 3140 3141 3141 3141 3141 3141 3141 3140 3138 3137 3135 3134 3132 3129 3126 3124 3121 3119 3116 3113 3110 3107 3105
3127 3129 3131 3132 3133 3133 3134 3134 3134 3132 3132 3131 3130 3129 3127 3126 3124 3121 3117 3115 3114 3111 3109 3106 3103 3100 3097
3119 3120 3122 3124 3125 3126 3127 3126 3127 3125 3124 3123 3121 3120 3120 3118 3115 3112 3109 3107 3106 3104 3102 3099 3096 3093 3091
3109 3112 3114 3116 3117 3118 3118 3118 3118 3116 3115 3114 3113 3113 3112 3108 3106 3104 3102 3101 3098 3097 3094 3092 3090 3087 3083
3100 3101 3105 3108 3110 3110 3109 3109 3109 3107 3106 3105 3103 3103 3102 3099 3097 3096 3095 3093 3091 3089 3087 3085 3082 3079 3076
3093 3094 3097 3099 3101 3102 3100 3100 3099 3098 3095 3095 3094 3094 3092 3091 3090 3089 3087 3085 3083 3081 3080 3077 3074 3071 3068
3085 3089 3089 3091 3092 3093 3090 3089 3088 3088 3086 3085 3085 3084 3083 3083 3082 3081 3080 3078 3076 3074 3071 3069 3067 3063 3059
3077 3079 3079 3080 3079 3080 3079 3079 3079 3079 3078 3077 3077 3076 3076 3076 3075 3074 3071 3070 3068 3066 3063 3061 3058 3054 3051
3067 3068 3068 3068 3070 3069 3070 3070 3071 3071 3071 3070 3070 3070 3069 3068 3068 3066 3064 3062 3060 3058 3055 3052 3049 3046 3042
3056 3057 3058 3060 3060 3061 3063 3064 3064 3063 3064 3064 3063 3063 3062 3062 3060 3058 3056 3054 3052 3050 3048 3045 3041 3037 3034
3050 3051 3052 3053 3054 3055 3056 3056 3056 3055 3056 3055 3055 3055 3055 3054 3053 3051 3049 3047 3046 3043 3041 3037 3033 3027 3024
3044 3046 3047 3047 3046 3047 3048 3049 3049 3049 3048 3048 3048 3048 3047 3046 3045 3044 3042 3040 3038 3035 3033 3029 3024 3018 3013
3038 3039 3040 3039 3040 3041 3043 3042 3042 3042 3041 3041 3041 3041 3040 3040 3038 3036 3034 3032 3030 3027 3024 3020 3015 3009 3006
3031 3032 3033 3033 3034 3035 3035 3034 3035 3035 3035 3034 3034 3034 3033 3033 3031 3029 3028 3025 3023 3019 3016 3012 3006 2999 2996
3023 3024 3025 3025 3025 3026 3027 3027 3027 3027 3027 3027 3027 3027 3026 3026 3024 3022 3020 3017 3014 3009 3006 3004 2998 2992 2989
3015 3015 3016 3018 3018 3019 3019 3020 3020 3019 3020 3020 3020 3020 3019 3018 3017 3014 3011 3008 3004 2999 2996 2995 2993 2987 2984
3008 3008 3009 3010 3010 3010 3011 3012 3013 3013 3012 3013 3013 3012 3011 3010 3009 3005 3002 2998 2995 2992 2988 2986 2984 2982 2978